Location: Namasale
(1.5000°N, 32.6167°E)
Time: 00:42:26
(UTC+00:00)

Vanguard 2 Rocket - Pass Details

Date: 23 April 2021
Orbit: 553 x 3326 km, 32.9° (Epoch: 10 May)

Event Time Altitude Azimuth Distance (km) Brightness Sun altitude
Rises 16:22:12 0° 313° (NW) 7,217 12.6 -8.0°
Reaches altitude 10° 16:27:53 10° 320° (NW) 5,997 11.9 -9.4°
Maximum altitude 16:44:08 43° 25° (NNE) 2,967 9.4 -13.4°
Enters shadow 16:52:26 17° 87° (E) 3,466 9.2 -15.4°
